Погода Жосалы

Хотите узнать прогноз погоды Жосалы? Тогда Вам сюда: Погода Жосалы

Поиск расширенной информации на нашем сайте:

Полезная информация:

Новости сайта



02.01.2020
Опубликован Долгосрочный прогноз погоды по городам России и ближнего зарубежья на январь 2020 года.
Карты: Прогноз на январь и февраль 2020 года, Сравнение прогнозируемой аномалии приземной температуры воздуха на январь 2020 года по разным моделям.




Погода Жосалы - сегодня

Время (UTC), дата Ветер
(°,м/с) 
Видим.   Явления Облачность Т
(°С)
Тd
(°С)
f(%) Тe
(°С)
Pmin
(гПа)
dP
(гПа)
Po
(мм)
O2
(г/м3)
Тmin Tmax R s Состояние
почвы
12 22.10.21 230 (ЮЗ) 13-15{19}  20000 м  в посл. час дождь  10/10 600 м 
[Sc]
+7.6 -0.5 56 +4  1031.7  0.1  764  300           
15 22.10.21 170 (Ю) 5{15}  н/о  в посл. час дождь  10/10 600 м 
[Sc]
+7.8 +0.2 59 +6  1032.1  0.4  764  299    +8.1       
18 22.10.21 170 (Ю) н/о  {дождь}  8/8 600 м 
[Sc]
+7.5 -2.5 49 +5  1032.5  0.4  765  300    +8.1  0.3     
21 22.10.21 160 (Ю) н/о    6/4 600 м средняя 
[Sc|Ac trans]
+5.9 -4.6 47 +3  1032.2  -0.3  765  302           
00 23.10.21 180 (Ю) н/о    3/0 верхняя 
[Ci sp]
+3.3 -6.6 48 1032.3  -0.1  764  305           
03 23.10.21 160 (Ю) 20000 м  гроза, пыльная буря  4/0 средняя, верхняя 
[Ac trans|Ci sp]
+3.5 -6.7 47 +1  1032.9  0.6  765  305           
06 23.10.21 190 (Ю) 20000 м    4/0 средняя, верхняя 
[Ac trans|Ci sp]
+11.4 -4.7 32 +11  1033.1  0.5  765  297  +2.9         
09 23.10.21 210 (ЮЗ) 20000 м    ясно 
+15.2 -4.7 25 +14  1031.5  -1.4  764  292           
12 23.10.21 190 (Ю) 20000 м    ясно 
+14.9 -6.7 22 +15  1030.7  -0.8  764  292           
15 23.10.21 130 (ЮВ) н/о    ясно 
+9.2 -5.7 34 +9  1031.2  0.2  764  298    +16.5       
18 23.10.21 120 (ЮВ) н/о    ясно 
+4.8 -6.4 44 +4  1030.7  -0.6  763  303    +16.5       
21 23.10.21 050 (СВ) н/о    ясно 
+2.1 -7.1 51 +1  1029.8  -1  763  306           
00 24.10.21 040 (СВ) н/о    ясно 
+1.5 -7.2 52 1029.2  -0.7  762  306           
03 24.10.21 070 (В) 20000 м    3/0 верхняя 
[Ci sp]
+1.1 -7.3 53 1028.2  -1  761  306           
06 24.10.21 070 (В) 20000 м    3/0 верхняя 
[Ci sp]
+11.8 -4.7 31 +10  1026.1  -1.5  760  294  +0.3         
09 24.10.21 090 (В) 20000 м    ясно 
+17 -4.7 22 +17  1023.5  -2.4  758  288           
12 24.10.21 070 (В) 20000 м    3/0 верхняя 
[Ci fib]
+17.5 -4.1 23 +18  1021.6  -1.8  757  287           
15 24.10.21 040 (СВ) н/о    ясно 
+9.8 -5 35 +9  1021.5  -0.4  757  295    +18.2       
18 24.10.21 050 (СВ) н/о    ясно 
+8.6 -3.8 41 +8  1020  -1.6  756  296    +18.2       
21 24.10.21 040 (СВ) н/о    ясно 
+6.9 -2.7 50 +5  1018.4  -1.4  754  297           
00 25.10.21 020 (С) н/о    6/0 верхняя 
[Cs]
+4.5 -3.6 56 +2  1017.3  -1.2  753  299           
03 25.10.21 050 (СВ) 20000 м    8/0 средняя, верхняя 
[Ac trans|Ci fib]
+3 -4.6 57 +1  1016.9  -0.4  753  301           
06 25.10.21 080 (В) 20000 м    4/0 верхняя 
[Ci fib]
+11.6 -2.7 37 +11  1015.5  -1  752  291  +2.5         
09 25.10.21 150 (ЮВ) 20000 м    4/0 верхняя 
[Ci fib]
+17.8 -2.7 25 +18  1013.6  -1.6  751  284           
12 25.10.21 170 (Ю) 20000 м    6/0 верхняя 
[Ci]
+18.3 -1.9 25 +19  1012.9  -0.7  751  284           
Время (UTC), дата Ветер
(°,м/с) 
Видим.   Явления Облачность Т
(°С)
Тd
(°С)
f(%) Тe
(°С)
Pmin
(гПа)
dP
(гПа)
Po
(мм)
O2
(г/м3)
Тmin Tmax R s Состояние
почвы

Для получения пояснительной информации подведите курсор к названию столбца.

ПОГОДА Жосалы - архив

Всё, что Вы хотите узнать о погоде Жосалы - удобно и подробно!

Выберите нужную дату (начиная с 1 января 2019* года) и нажмите кнопку "Найти".
Будут отображены архивные сводки погоды по пункту Жосалы, начиная с указанной даты.


Отображать данные в формате CSV (для использования в таблицах Excel)


Внимание! Наш архив погоды предназначен исключительно для личного некоммерческого использования в познавательных целях. Если Вам необходимы официальные справки о состоянии погоды (для производственных, юридических, коммерческих и т.п. целей), обращайтесь в органы Росгидромета.

*Примечание: данная дата относится к архиву по метеостанциям СССР (Россия, СНГ, Балтия).
Архив по метеостанциям Зарубежной Европы и Азии (кроме Китая) хранится 10 дней, по другим регионам земного шара (Китай, Африка, Америка, Австралия, Океания) - 1 день.

Жосалы - район местоположения метеостанции


Название, широта, долгота, высота метеостанции:
Жосалы (Джусалы) 45.5°ш. 64.1°д. 103 м над ур. моря [Казахстан]

Дополнительная информация

В oтличие oт бoльшинства пoгoдных сайтoв мы публикуем пoдрoбную метеoинфoрмацию в детальнoм прoфессиoнальнoм фoрмате.

Характеристики температуры и влажнoсти вoздуха измеряются на высoте 2 м в тени вдали oт зданий и деревьев.
Скoрoсть ветра измеряется на высoте 10 м (на урoвне рoста челoвека скoрoсть ветра ниже в 1.5-2 раза). Если метеoстанция нахoдится в гoрoде или в лесу, тo скoрoсть ветра занижена на 2-4 м/с пo сравнению с oткрытым местoм. Скoрoсть ветра над акватoриями крупных рек и oзёр, а также на вершинах хoлмoв на 2-5 м/с выше, чем в oбычных услoвиях.
Атмoсфернoе давление в разных тoчках местнoсти мoжет значительнo oтличаться oт давления на метеoстанции, в зависимoсти oт услoвий рельефа (при пoдъёме на 10 м давление пoнижается примернo на 1 мм рт.ст.).